Location: Noverd
(38.0910°N, 121.6877°W)
Time: 19:43:47
(UTC+00:00)

COSMOS 2455 - Pass Details

Date: 13 February 2026
Orbit: 899 x 909 km, 67.1° (Epoch: 10 March)

Event Time Altitude Azimuth Distance (km) Brightness Sun altitude
Exits shadow 12:23:01 62° 134° (SE) 1,018 3.1 -31.2°
Maximum altitude 12:23:25 63° 113° (ESE) 1,005 3.1 -31.1°
Drops below altitude 10° 12:29:22 10° 34° (NE) 2,597 5.7 -30.0°
Sets 12:31:54 0° 31° (NNE) 3,542 6.4 -29.5°
